Accueil
METAR-TAF:

METAR-TAF

Aéroports :

Blackstone, Virginie, États-Unis

latitude: 37-04-26N, longitude: 077-57-09W, altitude: 134 m

Observation

Le bulletin a été fait il y a 13 minutes, à 22:35 UTC
Vent 8 kt de ouest avec des rafales jusqu'à 16 kt
Température 7°C
Humidité 45%
Pression 1013 hPa
Visibilité: 16.1 km
Nuages épars à une hauteur de 3300 ft
Nuages fragmentés à une hauteur de 9500 ft
Ciel couvert à une hauteur de 12000 ft

METAR: KBKT 282235Z AUTO 27008G16KT 10SM SCT033 BKN095 OVC120 07/M04 A2991 RMK AO1 T00701040

Heure: 17:48 (22:48 UTC)


TAF: absent

Observations et prévisions météorologiques de plus de 4000 aéroports (messages METAR et TAF).

Les stations disponibles sont représentées par des disques jaunes et rouges sur la carte.

Passer la souris dessus pour voir le nom de la station.

Cliquer dessus pour voir les observations et prévisions météorologiques.

Pour changer de carte: cliquez sur les boutons verts avec une croix noire pour zoomer, sur le bouton vert avec un tiret pour effectuer un zoom arrière, ou sur les flèches vertes pour les cartes adjacentes.


METAR-TAF: